GW5434 Weather Reports


time (UTC)temp
F
wind
direction
speed
knots
gust
knots
rain 1hr
in
rain 24hr
in
rain mn
in
humidity
%
barometer
mb
20260503053025 47 109 0.0 0.0 0.00 0.29 0.00 93 1020.1
20260503051513 47 109 0.0 0.0 0.00 0.29 0.00 93 1020.1
20260503050003 47 109 0.0 0.0 0.00 0.30 0.00 92 1020.1
20260503044507 47 109 0.0 0.0 0.00 0.31 0.30 92 1020.2
20260503043008 48 109 0.0 0.0 0.00 0.31 0.30 92 1020.1
20260503041516 48 109 0.0 0.0 0.00 0.32 0.30 92 1020.1
20260503040019 48 109 0.0 0.0 0.00 0.32 0.30 91 1020.1
20260503034520 49 109 0.0 0.0 0.00 0.33 0.30 91 1019.9
20260503033005 49 109 0.0 0.0 0.00 0.35 0.30 90 1019.8
20260503031507 50 109 0.0 0.0 0.00 0.38 0.30 90 1019.7
20260503030014 50 99 0.0 0.9 0.00 0.40 0.30 89 1019.6
20260503024520 51 123 0.0 0.0 0.00 0.41 0.30 88 1019.5
20260503023022 52 123 0.0 0.0 0.00 0.42 0.30 87 1019.2
20260503021503 52 123 0.0 0.9 0.00 0.42 0.30 86 1019.0
20260503020011 53 1 0.0 0.0 0.00 0.42 0.30 84 1018.8
20260503014513 54 353 0.0 0.0 0.00 0.43 0.30 82 1018.8
20260503013020 55 353 0.0 0.0 0.00 0.46 0.30 80 1018.7
20260503011524 57 353 0.0 0.0 0.00 0.48 0.30 76 1018.4
20260503010004 59 353 0.0 0.0 0.00 0.48 0.30 74 1018.1
20260503004522 62 353 0.0 0.0 0.00 0.49 0.30 68 1018.0
20260503003016 65 353 0.0 1.7 0.00 0.50 0.30 53 1017.7
20260503001520 68 334 0.9 4.3 0.00 0.51 0.30 44 1017.5
20260503000023 69 326 0.9 4.3 0.00 0.52 0.30 43 1017.4
20260502234510 70 17 2.6 7.0 0.00 0.54 0.30 40 1017.2
20260502233013 70 311 1.7 7.8 0.00 0.56 0.30 40 1016.9
20260502231519 71 293 2.6 9.6 0.00 0.57 0.30 37 1016.9
20260502230022 71 312 3.5 9.6 0.00 0.58 0.30 38 1016.8
20260502224526 71 312 2.6 10.4 0.00 0.60 0.30 39 1016.7
20260502223012 71 330 4.3 13.0 0.00 0.63 0.30 37 1016.6
20260502221515 71 334 1.7 7.0 0.00 0.68 0.30 38 1016.4
20260502220020 71 333 6.1 13.0 0.00 0.71 0.30 37 1016.3
20260502214525 71 328 7.0 14.8 0.00 0.75 0.30 38 1016.3
20260502213026 71 325 2.6 10.4 0.00 0.78 0.30 39 1016.3
20260502211522 71 38 6.1 12.2 0.00 0.84 0.30 39 1016.4
20260502210017 71 34 5.2 12.2 0.00 0.88 0.30 39 1016.5
20260502204520 71 24 5.2 11.3 0.00 0.93 0.30 40 1016.6
20260502203025 70 304 3.5 12.2 0.00 0.98 0.30 39 1016.8
20260502201508 70 294 7.8 15.6 0.00 1.09 0.30 38 1016.9
20260502200020 70 26 8.7 15.6 0.00 1.12 0.30 38 1017.2
20260502194518 70 274 7.0 15.6 0.00 1.14 0.30 39 1017.3
20260502193024 70 337 6.1 11.3 0.00 1.20 0.30 38 1017.2
20260502191507 70 347 4.3 11.3 0.00 1.23 0.30 40 1017.3
20260502190012 69 49 5.2 11.3 0.00 1.24 0.30 38 1017.3
20260502184518 69 295 7.0 14.8 0.00 1.24 0.30 39 1017.3
20260502183035 68 319 7.8 15.6 0.00 1.24 0.30 38 1017.5
20260502181535 69 23 3.5 9.6 0.00 1.24 0.30 42 1017.6
20260502163021 65 70 5.2 13.0 0.00 1.31 0.30 57 1018.0
20260502161524 64 41 5.2 12.2 0.00 1.32 0.30 58 1018.0
20260502151515 62 356 2.6 9.6 0.00 1.34 0.30 70 1017.6
20260502123024 54 301 1.7 4.3 0.00 1.35 0.30 94 1015.9
20260502121524 53 308 0.9 5.2 0.00 1.35 0.30 95 1015.8
20260502114515 52 349 0.0 2.6 0.00 1.35 0.30 95 1015.5
20260502113025 52 313 0.0 1.7 0.00 1.35 0.30 95 1015.1
20260502111505 52 276 0.0 0.0 0.00 1.36 0.30 95 1014.7
20260502110010 52 276 0.0 0.9 0.00 1.36 0.30 95 1014.7
20260502104515 52 212 0.0 1.7 0.00 1.37 0.30 95 1014.6
20260502103019 52 332 0.0 0.0 0.02 1.39 0.30 94 1014.2
20260502101519 52 332 0.0 0.9 0.06 1.39 0.30 94 1014.1
20260502091519 52 76 0.9 1.7 0.12 1.33 0.24 94 1014.2
20260502071513 52 314 2.6 6.1 0.05 1.19 0.06 94 1015.2
20260502070017 52 314 0.9 4.3 0.01 1.16 0.02 94 1015.2
20260502064522 52 325 1.7 7.0 0.01 1.16 0.02 94 1014.9
20260502063003 52 28 0.9 4.3 0.01 1.16 0.02 94 1015.0
20260502061509 52 300 1.7 3.5 0.00 1.15 0.01 94 1015.2
20260502060015 51 4 1.7 5.2 0.01 1.16 0.01 94 1015.1
20260502054518 51 14 1.7 3.5 0.02 1.17 0.01 94 1015.1